Location: Newark
(45.8667°N, 9.7333°E)
Time: 04:01:39
(UTC+00:00)

SR - All Passes

Search period start: 20 January 2020 00:00
Search period end: 30 January 2020 00:00
Orbit: 574 x 882 km, 66.7° (Epoch: 19 January)

Date Brightness Start Highest point End Pass type
(mag) Time Alt. Az. Time Alt. Az. Time Alt. Az.
20 Jan - 01:41:05 10° WNW 01:44:20 15° NNW 01:47:34 10° N visible
20 Jan - 05:10:52 10° N 05:14:04 15° NNE 05:17:09 10° ENE visible
20 Jan - 06:52:09 10° NNW 06:57:40 48° NE 07:02:45 10° SE daylight
20 Jan - 08:34:45 10° NW 08:39:31 30° WSW 08:43:57 10° S daylight
20 Jan - 21:25:05 10° SSE 21:29:17 21° ESE 21:33:34 10° ENE night (unlit)
20 Jan - 23:04:58 10° SW 23:10:48 75° NW 23:16:47 10° NNE night (unlit)
21 Jan - 00:49:36 10° W 00:53:56 21° NW 00:58:17 10° NNE night (unlit)
21 Jan - 04:21:51 10° N 04:23:32 11° NNE 04:25:11 10° NE visible
21 Jan - 06:02:39 10° NNW 06:07:38 30° NE 06:12:19 10° ESE visible
21 Jan - 07:44:38 10° NW 07:50:08 57° WSW 07:55:09 10° SSE daylight
21 Jan - 20:39:08 10° ESE 20:40:10 10° E 20:41:12 10° E night (unlit)
21 Jan - 22:15:24 10° SSW 22:21:08 65° ESE 22:27:02 10° NE night (unlit)
21 Jan - 23:58:35 10° WSW 00:03:44 30° NW 00:08:55 10° NNE night (unlit)
22 Jan - 01:45:58 10° NW 01:47:50 11° NNW 01:49:44 10° N visible
22 Jan - 05:13:15 10° NNW 05:17:25 20° NNE 05:21:23 10° E visible
22 Jan - 06:54:50 10° NNW 07:00:31 80° NE 07:05:42 10° SE daylight
22 Jan - 08:38:29 10° WNW 08:41:48 16° WSW 08:44:57 10° SW daylight
22 Jan - 21:26:25 10° S 21:31:40 36° ESE 21:37:02 10° NE night (unlit)
22 Jan - 23:08:03 10° WSW 23:13:42 47° NW 23:19:25 10° NNE night (unlit)
23 Jan - 00:53:57 10° WNW 00:57:19 15° NNW 01:00:39 10° N night (unlit)
23 Jan - 04:24:00 10° N 04:27:02 14° NNE 04:29:58 10° ENE visible
23 Jan - 06:05:13 10° NNW 06:10:41 46° NE 06:15:42 10° ESE visible
23 Jan - 07:47:45 10° NW 07:52:35 31° WSW 07:57:04 10° S daylight
23 Jan - 20:38:18 10° SSE 20:42:22 20° ESE 20:46:30 10° ENE night (unlit)
23 Jan - 22:17:59 10° SW 22:23:51 79° NW 22:29:50 10° NNE night (unlit)
24 Jan - 00:02:30 10° W 00:06:56 21° NW 00:11:22 10° NNE night (unlit)
24 Jan - 03:35:03 10° N 03:36:29 11° NNE 03:37:53 10° NNE visible
24 Jan - 05:15:44 10° NNW 05:20:38 29° NE 05:25:13 10° E visible
24 Jan - 06:57:40 10° NW 07:03:10 60° WSW 07:08:11 10° SSE daylight
24 Jan - 21:28:28 10° SSW 21:34:12 61° ESE 21:40:04 10° NE night (unlit)
24 Jan - 23:11:32 10° WSW 23:16:44 31° NW 23:21:58 10° NNE night (unlit)
25 Jan - 00:58:46 10° NW 01:00:48 12° NNW 01:02:49 10° N night (unlit)
25 Jan - 04:26:21 10° NNW 04:30:24 19° NNE 04:34:15 10° ENE visible
25 Jan - 06:07:53 10° NNW 06:13:32 76° NE 06:18:41 10° SE visible
25 Jan - 07:51:25 10° WNW 07:54:53 17° WSW 07:58:10 10° SW daylight
25 Jan - 20:39:33 10° S 20:44:44 34° ESE 20:50:02 10° NE night (unlit)
25 Jan - 22:21:01 10° SW 22:26:43 49° NW 22:32:29 10° NNE night (unlit)
26 Jan - 00:06:49 10° WNW 00:10:17 16° NNW 00:13:43 10° N night (unlit)
26 Jan - 03:37:07 10° N 03:39:59 14° NNE 03:42:46 10° NE visible
26 Jan - 05:18:17 10° NNW 05:23:41 44° NE 05:28:39 10° ESE visible
26 Jan - 07:00:45 10° NW 07:05:39 33° WSW 07:10:10 10° S daylight
26 Jan - 19:51:32 10° SSE 19:55:27 19° ESE 19:59:26 10° ENE night (unlit)
26 Jan - 21:31:01 10° SW 21:36:54 82° NW 21:42:52 10° NNE night (unlit)
26 Jan - 23:15:24 10° W 23:19:56 22° NW 23:24:26 10° NNE night (unlit)
27 Jan - 02:48:17 10° N 02:49:25 11° NNE 02:50:33 10° NNE visible
27 Jan - 04:28:48 10° NNW 04:33:37 27° NE 04:38:08 10° E visible
27 Jan - 06:10:43 10° NW 06:16:13 63° WSW 06:21:14 10° SSE visible
27 Jan - 20:41:32 10° SSW 20:47:15 58° ESE 20:53:05 10° NE night (unlit)
27 Jan - 22:24:28 10° WSW 22:29:44 32° NW 22:35:02 10° NNE night (unlit)
28 Jan - 00:11:36 10° NW 00:13:45 12° NNW 00:15:54 10° N night (unlit)
28 Jan - 03:39:27 10° NNW 03:43:22 19° NNE 03:47:06 10° ENE visible
28 Jan - 05:20:57 10° NNW 05:26:34 72° NE 05:31:40 10° SE visible
28 Jan - 07:04:20 10° WNW 07:07:56 18° WSW 07:11:22 10° SSW daylight
28 Jan - 19:52:42 10° S 19:57:49 32° ESE 20:03:01 10° NE night (unlit)
28 Jan - 21:34:00 10° SW 21:39:45 52° NW 21:45:32 10° NNE night (unlit)
28 Jan - 23:19:42 10° WNW 23:23:15 16° NNW 23:26:47 10° N night (unlit)
29 Jan - 02:50:15 10° N 02:52:57 13° NNE 02:55:34 10° NE visible
29 Jan - 04:31:21 10° NNW 04:36:41 41° NE 04:41:35 10° ESE visible
29 Jan - 06:13:46 10° NW 06:18:42 35° WSW 06:23:15 10° S visible
29 Jan - 19:04:47 10° SE 19:08:32 18° ESE 19:12:21 10° ENE night (unlit)
29 Jan - 20:44:03 10° SSW 20:49:56 86° WNW 20:55:55 10° NNE night (unlit)
29 Jan - 22:28:19 10° W 22:32:55 23° NW 22:37:29 10° NNE night (unlit)
